Regional Weather Roundup
Issued by NWS

Home | Current Version | Previous Version | Text Only | Print | Product List | Glossary Off
Versions: 1 2 3 4 5 6 7 8 9 10 11 12 13 14 15 16 17 18 19 20 21 22 23 24 25 26 27 28 29 30 31 32 33 34 35 36 37 38 39 40 41 42 43 44 45 46 47 48 49 50

000
ASUS43 KDTX 301901
RWRMI
MICHIGAN HOURLY REGIONAL WEATHER ROUNDUP
NATIONAL WEATHER SERVICE DETROIT/PONTIAC MI
300 PM EDT SAT AUG 30 2014

NOTE: "FAIR" INDICATES FEW OR NO CLOUDS BELOW 12,000 FEET WITH NO
SIGNIFICANT WEATHER AND/OR OBSTRUCTION TO VISIBILITY.

MIZ047>049-052>055-059>063-066>070-074>076-081>083-302000-
SOUTHEAST LOWER MICHIGAN

CITY           SKY/WX    TMP DP  RH WIND       PRES   REMARKS
ADRIAN         PTSUNNY   84  67  56 SW16G29   29.94F
ALMA           PTSUNNY   81  72  72 S13G23    29.84F
ANN ARBOR      CLOUDY    81  67  62 SW13G20   29.92F
BAD AXE        CLOUDY    79  70  74 S16G23    29.87F
CARO           CLOUDY    79  71  74 S10G18    29.87F
DETROIT CITY   CLOUDY    85  65  51 SW17G31   29.92S
DETROIT        CLOUDY    81  67  62 S14       29.93S
FLINT          CLOUDY    82  69  64 S10       29.89F
GROSSE ILE     PTSUNNY   84  66  54 SW10G22   29.92F
HILLSDALE      MOSUNNY   84  68  58 SW14G20   29.93F
HOWELL         CLOUDY    79  70  72 S13       29.90F

CITY           SKY/WX    TMP DP  RH WIND       PRES   REMARKS
JACKSON        PTSUNNY   83  68  60 SW17G23   29.91F
LAMBERTVILLE   PTSUNNY   86  68  54 SW13G21   29.94F
LANSING        PTSUNNY   81  70  69 S14       29.87F
LAPEER         MOCLDY    81  68  64 SW12G17   29.90F
MASON          PTSUNNY   80  70  70 S9G18     29.89F
MONROE         PTSUNNY   84  66  54 SW9G22    29.92F
MT. CLEMENS    PTSUNNY   84  65  53 SW15G23   29.90S
PONTIAC        CLOUDY    80  67  64 S10       29.91F
PORT HOPE        N/A     79  69  71 VRB6      29.84F
PORT HURON     CLOUDY    81  70  69 S15       29.91S
TRI CITIES     CLOUDY    82  71  69 S13       29.85F
TROY           CLOUDY    83  67  58 SW10      29.93F
SAGINAW HB     CLOUDY    81  70  69 S15G21    29.85F
$$
MIZ043>046-050>051-056>058-064>065-071>073-077>080-302000-
SOUTHWEST LOWER MICHIGAN

CITY           SKY/WX    TMP DP  RH WIND       PRES   REMARKS
BATTLE CREEK   PTSUNNY   82  69  64 S18       29.89F
BENTON HARBOR  PTSUNNY   81  68  64 SW16G24   29.86F
BIG RAPIDS     PTSUNNY   78  70  77 SW10G26   29.81F
COLDWATER      CLOUDY    85  68  57 SW16G22   29.91F
FREMONT        CLOUDY    76  68  75 SW21      29.82F
HOLLAND        SUNNY     83  70  64 SW20G33   29.85F
GRAND RAPIDS   LGT RAIN  75  75 100 SW12G23   29.85F FOG
IONIA          MOCLDY    82  69  65 SW17      29.84F
KALAMAZOO      PTSUNNY   83  68  60 SW17G26   29.88F
LUDINGTON      CLOUDY    77  71  81 S22G28    29.79F
MARSHALL       MOSUNNY   83  69  63 SW12G21   29.89F
MOUNT PLEASANT PTSUNNY   81  69  67 S14G23    29.82F
MUSKEGON       PTSUNNY   79  69  71 S20G30    29.82F
SOUTH HAVEN    MOSUNNY   83  70  64 SW15G24   29.85S
$$
MIZ016>042-302000-
NORTHERN LOWER MICHIGAN

CITY           SKY/WX    TMP DP  RH WIND       PRES   REMARKS
ALPENA         PTSUNNY   78  69  73 S7        29.79F
BEAVER ISLAND  CLOUDY    72  68  87 SW13      29.75F
BELLAIRE       CLOUDY    81  67  61 SW6       29.74F
CADILLAC       PTSUNNY   78  68  71 SW16G26   29.80F
CHARLEVOIX     CLOUDY    76  68  77 W9G17     29.78S
FRANKFORT      SUNNY     77  67  71 S17G29    29.77S
GAYLORD        LGT RAIN  75  68  78 SW10G23   29.79F
GRAYLING       MOSUNNY   78  69  72 S14       29.81S
HARBOR SPRINGS PTSUNNY   80  67  65 SW8       29.74F
HOUGHTON LAKE  PTSUNNY   77  68  73 S14G21    29.81F
MANISTEE       PTSUNNY   77  64  65 S12G20    29.78F
OSCODA         CLOUDY    77  70  78 SW15G21   29.82F
PELLSTON       MOSUNNY   81  68  64 SW10G17   29.75F
ROGERS CITY    PTSUNNY   81  72  74 SW9       29.78F
TRAVERSE CITY  PTSUNNY   82  66  58 SW9G20    29.73F
$$
MIZ007>008-015-302000-
EASTERN UPPER MICHIGAN

CITY           SKY/WX    TMP DP  RH WIND       PRES   REMARKS
KINROSS        CLOUDY    75  72  88 SW9       29.75F
MACKINAC ISLAN CLOUDY    73  69  88 SW12G18   29.76S
NEWBERRY       CLOUDY    68  67  97 SW12G21   29.74S FOG
S. S. MARIE    CLOUDY    70  68  93 SE3       29.75S FOG
$$
MIZ004>006-011>014-085-302000-
CENTRAL UPPER MICHIGAN

CITY           SKY/WX    TMP DP  RH WIND       PRES   REMARKS
MANISTIQUE     CLOUDY    67  67  97 S9        29.74R FOG
ESCANABA       CLOUDY    66  64  94 NE7       29.73R
MENOMINEE      CLOUDY    72  66  83 N7        29.72S
SAWYER-GWINN   CLOUDY    61  59  94 N14       29.78S
$$
MIZ001>003-009>011-084-302000-
WESTERN UPPER MICHIGAN

CITY           SKY/WX    TMP DP  RH WIND       PRES   REMARKS
IRON MOUNTAIN  CLOUDY    71  65  81 NW9       29.75S
HOUGHTON       CLOUDY    59  56  89 NE13      29.83S
COPPER HARBOR    N/A     57  55  93 NE10      29.82R
$$

ABBREVIATIONS USED IN REMARKS
   TC - TEMPERATURE IN CELSIUS
  WCI - WIND CHILL INDEX
   HX - HEAT INDEX
  VSB - VISIBILITY



USA.gov is the U.S. government's official web portal to all federal, state and local government web resources and services.